contact:dominique.lefevre@mio.osupytheas.fr, maurice.libes@osupytheas.fr, didier.mallarino@osupytheas.fr
Project:EMSO http://www.emso-fr.org/EMSO-France
Depth: 2436.0 m
Title:EMSO Ligure Ouest : Data MII capteur AQUADOPP
Date,Latitude,Longitude,X_East,Y_North,Z_Up,Amplitude_X,Amplitude_Y,Amplitude_Z,Batterie,SoundSpeed,Heading,Pitch,Roll,Pressure,TIS,Speed,Direction
, degrees North, degrees East, m.s-1, m.s-1,m.s-1, 1, 1, 1, Volt, m.s-1, degree, degree, degree, dbar, degree_C, m.s-1, degree
2021-01-23T00:04:03,42.805,6.029,-0.057,-0.008,-0.005,109.0,110.0,104.0,13.3,1505.3,325.4,-0.7,1.9,2470.451,13.31,0.057,262.0
2021-01-23T00:07:03,42.805,6.029,-0.074,-0.008,0.002,109.0,111.0,105.0,13.4,1505.3,323.6,-0.7,1.8,2470.431,13.31,0.074,263.8
2021-01-23T00:10:03,42.805,6.029,-0.043,0.0,-0.02,108.0,111.0,105.0,13.3,1505.3,324.2,-0.7,1.8,2470.438,13.32,0.043,270.0
2021-01-23T00:13:03,42.805,6.029,-0.042,0.013,-0.011,108.0,110.0,105.0,13.3,1505.3,324.7,-0.7,1.8,2470.46,13.32,0.043,287.2
2021-01-23T00:16:03,42.805,6.029,-0.04,-0.017,0.009,109.0,109.0,106.0,13.3,1505.3,326.4,-0.7,1.8,2470.424,13.32,0.043,247.0
2021-01-23T00:19:03,42.805,6.029,-0.036,0.017,0.022,109.0,111.0,105.0,13.4,1505.3,328.1,-0.7,1.8,2470.456,13.32,0.039,295.3
2021-01-23T00:22:03,42.805,6.029,-0.043,0.004,0.0,109.0,109.0,106.0,13.4,1505.3,326.9,-0.7,1.8,2470.442,13.32,0.043,275.3
2021-01-23T00:25:03,42.805,6.029,-0.052,0.018,0.014,110.0,111.0,105.0,13.4,1505.3,324.0,-0.7,1.8,2470.453,13.32,0.055,289.1
2021-01-23T00:28:03,42.805,6.029,-0.054,0.001,-0.01,107.0,111.0,106.0,13.4,1505.3,324.0,-0.7,1.8,2470.427,13.32,0.054,271.1
2021-01-23T00:31:03,42.805,6.029,-0.059,0.015,-0.011,109.0,111.0,105.0,13.4,1505.3,327.0,-0.7,1.8,2470.435,13.32,0.06,284.3
2021-01-23T00:34:03,42.805,6.029,-0.077,0.011,-0.012,110.0,111.0,106.0,13.4,1505.3,326.7,-0.7,1.8,2470.437,13.32,0.077,278.1
2021-01-23T00:37:03,42.805,6.029,-0.056,-0.009,0.02,108.0,108.0,106.0,13.4,1505.3,326.6,-0.8,1.8,2470.409,13.32,0.056,260.9
2021-01-23T00:40:03,42.805,6.029,-0.064,0.007,-0.017,110.0,112.0,106.0,13.3,1505.3,326.1,-0.7,1.8,2470.443,13.32,0.064,276.2
2021-01-23T00:43:03,42.805,6.029,-0.071,-0.005,-0.023,109.0,110.0,104.0,13.4,1505.3,326.5,-0.7,1.9,2470.436,13.32,0.071,266.0
2021-01-23T00:46:03,42.805,6.029,-0.028,0.0,0.025,110.0,111.0,105.0,13.3,1505.3,326.6,-0.7,1.8,2470.446,13.32,0.028,270.0
2021-01-23T00:49:03,42.805,6.029,-0.066,0.007,-0.003,109.0,111.0,105.0,13.4,1505.3,326.6,-0.6,1.8,2470.402,13.32,0.066,276.1
2021-01-23T00:52:03,42.805,6.029,-0.053,0.0,-0.034,108.0,111.0,106.0,13.3,1505.3,326.5,-0.7,1.8,2470.419,13.32,0.053,270.0
2021-01-23T00:55:03,42.805,6.029,-0.06,-0.018,-0.006,110.0,110.0,104.0,13.4,1505.3,324.1,-0.7,1.8,2470.386,13.33,0.062,253.3
2021-01-23T00:58:03,42.805,6.029,-0.063,0.004,-0.04,109.0,112.0,104.0,13.4,1505.3,323.4,-0.7,1.9,2470.433,13.33,0.063,273.6
2021-01-23T01:04:03,42.805,6.029,-0.014,-0.015,-0.012,110.0,112.0,107.0,13.4,1505.2,324.5,-0.7,1.8,2470.467,13.3,0.02,223.0
2021-01-23T01:07:03,42.805,6.029,-0.059,-0.002,-0.004,110.0,112.0,104.0,13.3,1505.3,325.6,-0.7,1.8,2470.504,13.31,0.059,268.1
2021-01-23T01:10:03,42.805,6.029,-0.052,-0.015,-0.002,109.0,111.0,106.0,13.4,1505.3,323.1,-0.7,1.8,2470.471,13.32,0.054,253.9
2021-01-23T01:13:03,42.805,6.029,-0.04,-0.014,-0.026,109.0,111.0,107.0,13.4,1505.3,327.9,-0.7,1.8,2470.46,13.32,0.042,250.7
2021-01-23T01:16:03,42.805,6.029,-0.043,-0.031,-0.008,109.0,111.0,106.0,13.4,1505.3,326.4,-0.7,1.8,2470.465,13.32,0.053,234.2
2021-01-23T01:19:03,42.805,6.029,-0.052,-0.015,-0.016,109.0,110.0,105.0,13.4,1505.3,327.7,-0.7,1.9,2470.467,13.32,0.054,253.9
2021-01-23T01:22:03,42.805,6.029,-0.057,-0.021,0.014,109.0,110.0,105.0,13.3,1505.3,324.3,-0.7,1.8,2470.404,13.32,0.06,249.8
2021-01-23T01:25:03,42.805,6.029,-0.072,-0.019,-0.013,109.0,108.0,106.0,13.4,1505.3,326.9,-0.7,1.8,2470.438,13.32,0.074,255.2
2021-01-23T01:28:03,42.805,6.029,-0.071,-0.003,-0.02,109.0,111.0,105.0,13.4,1505.3,326.7,-0.6,1.8,2470.445,13.32,0.071,267.6
2021-01-23T01:31:03,42.805,6.029,-0.067,-0.008,-0.02,110.0,110.0,106.0,13.3,1505.3,324.6,-0.7,1.8,2470.451,13.32,0.067,263.2
2021-01-23T01:34:03,42.805,6.029,-0.063,-0.003,-0.006,109.0,110.0,105.0,13.4,1505.3,324.3,-0.7,1.8,2470.42,13.32,0.063,267.3
2021-01-23T01:37:03,42.805,6.029,-0.063,-0.001,-0.012,110.0,110.0,105.0,13.4,1505.3,325.1,-0.7,1.9,2470.436,13.32,0.063,269.1
2021-01-23T01:40:03,42.805,6.029,-0.058,-0.009,-0.011,108.0,109.0,105.0,13.3,1505.3,328.1,-0.7,1.8,2470.431,13.32,0.058,261.2
2021-01-23T01:43:03,42.805,6.029,-0.035,0.009,0.04,108.0,110.0,104.0,13.4,1505.3,323.5,-0.7,1.8,2470.44,13.32,0.036,284.4
2021-01-23T01:46:03,42.805,6.029,-0.058,-0.006,-0.013,109.0,110.0,104.0,13.4,1505.3,325.2,-0.7,1.8,2470.427,13.32,0.058,264.1
2021-01-23T01:49:03,42.805,6.029,-0.035,-0.02,0.004,109.0,110.0,105.0,13.4,1505.3,326.7,-0.7,1.8,2470.407,13.32,0.04,240.3
2021-01-23T01:52:03,42.805,6.029,-0.046,-0.025,-0.013,109.0,111.0,104.0,13.3,1505.3,323.7,-0.7,1.8,2470.461,13.33,0.052,241.5
2021-01-23T01:55:03,42.805,6.029,-0.033,0.003,0.0,110.0,110.0,105.0,13.4,1505.3,326.8,-0.7,1.8,2470.434,13.33,0.033,275.2
2021-01-23T01:58:03,42.805,6.029,-0.061,-0.021,-0.003,110.0,111.0,107.0,13.4,1505.3,326.1,-0.7,1.9,2470.421,13.32,0.064,251.0
2021-01-23T02:04:03,42.805,6.029,-0.033,-0.019,-0.016,109.0,111.0,105.0,13.4,1505.3,325.3,-0.8,1.8,2470.487,13.31,0.038,240.1
2021-01-23T02:07:03,42.805,6.029,-0.04,-0.007,-0.007,109.0,111.0,105.0,13.4,1505.3,327.0,-0.7,1.8,2470.487,13.31,0.04,260.1
2021-01-23T02:10:03,42.805,6.029,-0.054,-0.014,0.013,109.0,110.0,105.0,13.4,1505.3,324.9,-0.7,1.8,2470.478,13.32,0.055,255.5
2021-01-23T02:13:03,42.805,6.029,-0.039,-0.014,-0.01,110.0,110.0,105.0,13.4,1505.3,323.0,-0.7,1.8,2470.442,13.32,0.041,250.3
2021-01-23T02:16:03,42.805,6.029,-0.061,-0.004,-0.035,110.0,110.0,105.0,13.4,1505.3,323.2,-0.7,1.9,2470.444,13.32,0.061,266.3
2021-01-23T02:19:03,42.805,6.029,-0.073,-0.016,-0.01,108.0,110.0,106.0,13.4,1505.3,328.0,-0.7,1.8,2470.441,13.32,0.074,257.6
2021-01-23T02:22:03,42.805,6.029,-0.04,0.0,-0.004,109.0,111.0,104.0,13.4,1505.3,325.1,-0.7,1.8,2470.508,13.32,0.04,270.0
2021-01-23T02:25:03,42.805,6.029,-0.065,0.017,-0.007,109.0,109.0,105.0,13.4,1505.3,327.5,-0.7,1.8,2470.457,13.32,0.067,284.7
2021-01-23T02:28:03,42.805,6.029,-0.049,-0.004,-0.008,109.0,109.0,105.0,13.3,1505.3,327.7,-0.7,1.8,2470.46,13.32,0.049,265.3
2021-01-23T02:31:03,42.805,6.029,-0.059,0.003,-0.018,108.0,110.0,105.0,13.4,1505.3,328.4,-0.7,1.8,2470.469,13.32,0.059,272.9
2021-01-23T02:34:03,42.805,6.029,-0.061,-0.012,-0.017,110.0,111.0,104.0,13.3,1505.3,327.1,-0.7,1.8,2470.452,13.32,0.062,258.9
2021-01-23T02:37:03,42.805,6.029,-0.041,-0.01,0.009,108.0,109.0,105.0,13.4,1505.3,323.0,-0.7,1.8,2470.441,13.32,0.042,256.3
2021-01-23T02:40:03,42.805,6.029,-0.049,-0.009,-0.003,109.0,110.0,105.0,13.4,1505.3,323.5,-0.7,1.8,2470.494,13.32,0.049,259.6
2021-01-23T02:43:03,42.805,6.029,-0.052,-0.001,0.022,111.0,109.0,105.0,13.4,1505.3,323.8,-0.7,1.8,2470.414,13.33,0.052,268.9
2021-01-23T02:49:03,42.805,6.029,-0.059,-0.015,-0.015,111.0,111.0,105.0,13.4,1505.2,327.2,-0.8,1.8,2470.498,13.3,0.06,255.7
2021-01-23T02:52:03,42.805,6.029,-0.038,-0.006,-0.022,110.0,111.0,104.0,13.4,1505.3,324.5,-0.7,1.8,2470.477,13.31,0.038,261.0
2021-01-23T02:55:03,42.805,6.029,-0.051,-0.03,-0.013,110.0,111.0,106.0,13.4,1505.3,324.4,-0.7,1.8,2470.475,13.32,0.059,239.5
2021-01-23T02:58:03,42.805,6.029,-0.052,-0.021,-0.033,110.0,111.0,105.0,13.3,1505.3,324.9,-0.7,1.8,2470.477,13.32,0.056,248.0
2021-01-23T03:04:03,42.805,6.029,-0.046,-0.012,0.006,110.0,111.0,105.0,13.3,1505.2,324.7,-0.7,1.8,2470.526,13.3,0.047,255.4
2021-01-23T03:07:03,42.805,6.029,-0.03,-0.009,0.012,109.0,111.0,105.0,13.3,1505.3,324.8,-0.7,1.8,2470.476,13.31,0.031,253.3
2021-01-23T03:10:03,42.805,6.029,-0.031,-0.011,0.007,110.0,112.0,105.0,13.4,1505.3,326.9,-0.7,1.9,2470.481,13.32,0.032,250.5
2021-01-23T03:13:03,42.805,6.029,-0.058,-0.014,-0.025,110.0,110.0,106.0,13.4,1505.3,326.8,-0.7,1.8,2470.467,13.32,0.059,256.4
2021-01-23T03:16:03,42.805,6.029,-0.038,-0.031,0.009,109.0,110.0,105.0,13.4,1505.3,324.5,-0.7,1.8,2470.498,13.32,0.049,230.8
2021-01-23T03:19:03,42.805,6.029,-0.038,-0.025,-0.006,109.0,109.0,106.0,13.4,1505.3,325.9,-0.8,1.8,2470.465,13.32,0.045,236.7
2021-01-23T03:22:03,42.805,6.029,-0.06,-0.031,-0.009,111.0,110.0,105.0,13.3,1505.3,327.4,-0.7,1.8,2470.461,13.32,0.067,242.7
2021-01-23T03:25:03,42.805,6.029,-0.04,-0.02,-0.001,110.0,109.0,106.0,13.3,1505.3,326.5,-0.7,1.8,2470.471,13.32,0.044,243.4
2021-01-23T03:28:03,42.805,6.029,-0.058,-0.01,-0.039,109.0,110.0,104.0,13.4,1505.3,326.4,-0.7,1.9,2470.434,13.32,0.058,260.2
2021-01-23T03:31:03,42.805,6.029,-0.056,-0.022,0.01,110.0,108.0,106.0,13.3,1505.3,325.2,-0.7,1.8,2470.416,13.32,0.06,248.6
2021-01-23T03:34:03,42.805,6.029,-0.033,-0.023,-0.03,109.0,111.0,106.0,13.4,1505.3,323.5,-0.7,1.8,2470.462,13.32,0.04,235.1
2021-01-23T03:37:03,42.805,6.029,-0.046,-0.037,-0.029,109.0,109.0,106.0,13.3,1505.3,323.5,-0.7,1.8,2470.43,13.32,0.059,231.2
2021-01-23T03:40:03,42.805,6.029,-0.04,-0.029,0.0,109.0,110.0,106.0,13.3,1505.3,323.3,-0.7,1.9,2470.429,13.32,0.049,234.1
2021-01-23T03:43:03,42.805,6.029,-0.043,-0.004,0.005,110.0,110.0,104.0,13.3,1505.3,322.9,-0.7,1.8,2470.44,13.32,0.043,264.7
2021-01-23T03:46:03,42.805,6.029,-0.058,-0.027,-0.015,109.0,109.0,106.0,13.4,1505.3,323.3,-0.7,1.8,2470.43,13.32,0.063,245.0
2021-01-23T03:49:03,42.805,6.029,-0.037,-0.013,-0.023,110.0,109.0,105.0,13.3,1505.3,327.4,-0.7,1.8,2470.428,13.32,0.039,250.6
2021-01-23T03:52:03,42.805,6.029,-0.076,-0.025,-0.007,110.0,109.0,105.0,13.3,1505.3,324.8,-0.7,1.9,2470.434,13.32,0.08,251.8
2021-01-23T03:55:03,42.805,6.029,-0.032,-0.026,0.004,110.0,110.0,106.0,13.3,1505.3,324.0,-0.7,1.8,2470.495,13.32,0.041,230.9
2021-01-23T03:58:03,42.805,6.029,-0.03,-0.035,0.003,110.0,110.0,105.0,13.3,1505.3,326.6,-0.7,1.8,2470.452,13.32,0.046,220.6
2021-01-23T04:04:03,42.805,6.029,-0.04,-0.04,0.003,111.0,109.0,107.0,13.3,1505.2,326.5,-0.7,1.8,2470.498,13.3,0.056,225.0
2021-01-23T04:07:03,42.805,6.029,-0.039,-0.039,0.015,110.0,111.0,106.0,13.3,1505.3,324.9,-0.7,1.8,2470.493,13.31,0.055,225.0
2021-01-23T04:10:03,42.805,6.029,-0.05,-0.045,0.014,110.0,110.0,106.0,13.4,1505.3,327.3,-0.7,1.8,2470.446,13.31,0.067,228.0
2021-01-23T04:13:03,42.805,6.029,-0.05,-0.032,-0.019,109.0,109.0,106.0,13.4,1505.3,327.9,-0.7,1.8,2470.478,13.32,0.059,237.4
2021-01-23T04:16:03,42.805,6.029,-0.086,-0.047,-0.03,110.0,109.0,106.0,13.3,1505.3,324.0,-0.7,1.8,2470.462,13.32,0.098,241.3
2021-01-23T04:19:03,42.805,6.029,-0.053,-0.039,-0.014,110.0,108.0,105.0,13.3,1505.3,325.1,-0.7,1.8,2470.489,13.32,0.065,233.7
2021-01-23T04:22:03,42.805,6.029,-0.062,-0.043,-0.02,110.0,109.0,105.0,13.3,1505.3,326.8,-0.7,1.8,2470.489,13.32,0.075,235.3
2021-01-23T04:25:03,42.805,6.029,-0.054,-0.027,-0.011,110.0,109.0,106.0,13.3,1505.3,324.2,-0.7,1.8,2470.442,13.32,0.06,243.4
2021-01-23T04:28:03,42.805,6.029,-0.046,-0.044,-0.017,109.0,110.0,106.0,13.3,1505.3,326.5,-0.7,1.8,2470.492,13.32,0.063,226.3
2021-01-23T04:31:03,42.805,6.029,-0.034,-0.04,-0.034,110.0,110.0,105.0,13.4,1505.3,323.3,-0.7,1.8,2470.451,13.32,0.052,220.4
2021-01-23T04:34:03,42.805,6.029,-0.07,-0.042,-0.008,110.0,110.0,106.0,13.4,1505.3,323.2,-0.7,1.8,2470.504,13.32,0.081,239.0
2021-01-23T04:37:03,42.805,6.029,-0.059,-0.038,0.0,110.0,110.0,106.0,13.4,1505.3,326.4,-0.7,1.8,2470.505,13.32,0.07,237.2
2021-01-23T04:40:03,42.805,6.029,-0.052,-0.036,0.007,110.0,109.0,105.0,13.3,1505.3,325.3,-0.7,1.8,2470.476,13.32,0.063,235.3
2021-01-23T04:43:03,42.805,6.029,-0.037,-0.046,-0.027,110.0,109.0,106.0,13.4,1505.3,326.9,-0.7,1.8,2470.467,13.32,0.059,218.8
2021-01-23T04:46:03,42.805,6.029,-0.074,-0.041,-0.011,109.0,109.0,105.0,13.3,1505.3,325.1,-0.7,1.8,2470.466,13.32,0.084,241.0
2021-01-23T04:49:03,42.805,6.029,-0.047,-0.029,0.037,110.0,109.0,106.0,13.4,1505.3,326.3,-0.7,1.8,2470.456,13.32,0.055,238.3
2021-01-23T04:52:03,42.805,6.029,-0.053,-0.027,-0.007,110.0,109.0,105.0,13.3,1505.3,326.1,-0.7,1.8,2470.492,13.32,0.059,243.0
2021-01-23T04:55:03,42.805,6.029,-0.033,-0.048,-0.005,111.0,110.0,107.0,13.4,1505.3,326.1,-0.7,1.9,2470.46,13.32,0.058,214.5
2021-01-23T04:58:03,42.805,6.029,-0.053,-0.033,-0.02,109.0,109.0,107.0,13.4,1505.3,325.6,-0.7,1.8,2470.444,13.32,0.062,238.1
2021-01-23T05:04:03,42.805,6.029,-0.058,-0.032,-0.012,110.0,109.0,106.0,13.4,1505.2,326.8,-0.7,1.8,2470.509,13.3,0.066,241.1
2021-01-23T05:07:03,42.805,6.029,-0.051,-0.039,0.002,110.0,110.0,105.0,13.4,1505.3,326.9,-0.7,1.8,2470.494,13.31,0.064,232.6
2021-01-23T05:10:03,42.805,6.029,-0.045,-0.055,0.019,110.0,109.0,105.0,13.3,1505.3,326.2,-0.7,1.8,2470.45,13.31,0.071,219.3
2021-01-23T05:13:03,42.805,6.029,-0.051,-0.029,-0.012,110.0,110.0,105.0,13.4,1505.3,323.2,-0.7,1.8,2470.437,13.32,0.058,240.4
2021-01-23T05:16:03,42.805,6.029,-0.051,-0.032,-0.024,111.0,110.0,104.0,13.4,1505.3,325.7,-0.7,1.8,2470.464,13.32,0.06,237.9
2021-01-23T05:19:03,42.805,6.029,-0.051,-0.04,0.021,109.0,109.0,106.0,13.4,1505.3,327.7,-0.7,1.8,2470.431,13.32,0.064,231.9
2021-01-23T05:22:03,42.805,6.029,-0.055,-0.048,-0.005,108.0,109.0,106.0,13.3,1505.3,327.2,-0.7,1.8,2470.433,13.32,0.072,228.9
2021-01-23T05:25:03,42.805,6.029,-0.071,-0.021,-0.011,109.0,109.0,105.0,13.4,1505.3,324.9,-0.7,1.8,2470.459,13.32,0.074,253.5
2021-01-23T05:28:03,42.805,6.029,-0.04,-0.048,0.015,109.0,110.0,104.0,13.4,1505.3,323.7,-0.7,1.8,2470.482,13.32,0.062,219.8
2021-01-23T05:31:03,42.805,6.029,-0.037,-0.033,-0.021,109.0,109.0,103.0,13.4,1505.3,326.1,-0.7,1.8,2470.446,13.32,0.049,228.3
2021-01-23T05:34:03,42.805,6.029,-0.049,-0.032,0.004,108.0,109.0,104.0,13.4,1505.3,328.1,-0.7,1.8,2470.444,13.32,0.058,236.8
2021-01-23T05:37:03,42.805,6.029,-0.045,-0.035,-0.025,108.0,108.0,107.0,13.4,1505.3,326.2,-0.7,1.8,2470.397,13.32,0.057,232.1
2021-01-23T05:40:03,42.805,6.029,-0.055,-0.048,-0.017,110.0,110.0,105.0,13.3,1505.3,322.8,-0.7,1.8,2470.496,13.32,0.072,228.9
2021-01-23T05:43:03,42.805,6.029,-0.048,-0.026,-0.022,108.0,109.0,104.0,13.3,1505.3,327.0,-0.7,1.8,2470.439,13.32,0.054,241.6
2021-01-23T05:46:03,42.805,6.029,-0.037,-0.046,0.009,108.0,107.0,106.0,13.4,1505.3,326.2,-0.7,1.8,2470.39,13.32,0.059,218.8
2021-01-23T05:49:03,42.805,6.029,-0.05,-0.057,-0.008,108.0,108.0,105.0,13.3,1505.3,326.5,-0.7,1.8,2470.449,13.32,0.075,221.3
2021-01-23T05:52:03,42.805,6.029,-0.05,-0.022,0.022,109.0,108.0,104.0,13.4,1505.3,326.4,-0.7,1.9,2470.423,13.32,0.054,246.3
2021-01-23T05:55:03,42.805,6.029,-0.055,-0.048,-0.021,109.0,109.0,104.0,13.4,1505.3,327.0,-0.7,1.8,2470.419,13.32,0.072,228.9
2021-01-23T05:58:03,42.805,6.029,-0.054,-0.023,0.005,108.0,108.0,104.0,13.4,1505.3,326.7,-0.7,1.8,2470.391,13.32,0.058,246.9
2021-01-23T06:04:03,42.805,6.029,-0.046,-0.03,0.01,107.0,108.0,104.0,13.4,1505.2,324.0,-0.7,1.8,2470.482,13.3,0.054,236.9
2021-01-23T06:07:03,42.805,6.029,-0.038,-0.019,0.011,107.0,108.0,104.0,13.4,1505.3,327.1,-0.7,1.8,2470.434,13.31,0.042,243.4
2021-01-23T06:10:03,42.805,6.029,-0.053,-0.032,-0.018,107.0,108.0,104.0,13.4,1505.3,328.2,-0.7,1.8,2470.429,13.31,0.061,238.9
2021-01-23T06:13:03,42.805,6.029,-0.041,-0.02,-0.001,108.0,108.0,104.0,13.3,1505.3,328.3,-0.7,1.8,2470.446,13.32,0.045,244.0
2021-01-23T06:16:03,42.805,6.029,-0.049,-0.022,0.013,108.0,107.0,104.0,13.4,1505.3,325.7,-0.7,1.8,2470.425,13.32,0.053,245.8
2021-01-23T06:19:03,42.805,6.029,-0.046,-0.027,-0.006,108.0,108.0,103.0,13.3,1505.3,324.7,-0.7,1.8,2470.426,13.32,0.053,239.6
2021-01-23T06:22:03,42.805,6.029,-0.042,-0.027,0.019,109.0,107.0,104.0,13.4,1505.3,326.9,-0.7,1.8,2470.453,13.32,0.049,237.3
2021-01-23T06:25:03,42.805,6.029,-0.054,-0.032,0.007,107.0,107.0,104.0,13.4,1505.3,323.8,-0.7,1.8,2470.409,13.32,0.062,239.3
2021-01-23T06:28:03,42.805,6.029,-0.073,-0.04,-0.02,107.0,107.0,103.0,13.3,1505.3,326.4,-0.6,1.8,2470.407,13.32,0.083,241.3
2021-01-23T06:31:03,42.805,6.029,-0.052,-0.037,0.002,108.0,107.0,103.0,13.4,1505.3,325.4,-0.7,1.8,2470.423,13.32,0.063,234.6
2021-01-23T06:34:03,42.805,6.029,-0.056,-0.022,-0.011,108.0,107.0,103.0,13.4,1505.3,324.3,-0.7,1.8,2470.446,13.32,0.06,248.6
2021-01-23T06:37:03,42.805,6.029,-0.043,-0.019,-0.011,108.0,108.0,102.0,13.4,1505.3,325.0,-0.7,1.8,2470.435,13.32,0.047,246.2
2021-01-23T06:40:03,42.805,6.029,-0.027,-0.041,-0.018,108.0,107.0,104.0,13.4,1505.3,323.5,-0.7,1.8,2470.417,13.32,0.049,213.4
2021-01-23T06:43:03,42.805,6.029,-0.035,-0.048,0.016,106.0,107.0,105.0,13.4,1505.3,323.2,-0.7,1.8,2470.461,13.32,0.059,216.1
2021-01-23T06:46:03,42.805,6.029,-0.067,-0.038,-0.021,108.0,107.0,103.0,13.4,1505.3,328.1,-0.7,1.8,2470.435,13.32,0.077,240.4
2021-01-23T06:49:03,42.805,6.029,-0.045,-0.052,-0.019,107.0,105.0,104.0,13.3,1505.3,327.4,-0.7,1.8,2470.418,13.32,0.068,220.9
2021-01-23T06:52:03,42.805,6.029,-0.038,-0.026,0.039,107.0,108.0,104.0,13.4,1505.3,327.7,-0.7,1.8,2470.428,13.32,0.046,235.6
2021-01-23T06:55:03,42.805,6.029,-0.018,-0.039,-0.02,107.0,108.0,104.0,13.4,1505.3,324.0,-0.7,1.8,2470.448,13.32,0.042,204.8
2021-01-23T06:58:03,42.805,6.029,-0.06,-0.044,-0.027,106.0,107.0,103.0,13.3,1505.3,324.6,-0.7,1.8,2470.385,13.32,0.074,233.7
2021-01-23T07:04:03,42.805,6.029,-0.031,-0.027,0.028,108.0,106.0,103.0,13.4,1505.2,324.2,-0.8,1.8,2470.509,13.3,0.041,228.9
2021-01-23T07:07:03,42.805,6.029,-0.055,-0.035,-0.01,107.0,106.0,103.0,13.4,1505.3,325.0,-0.8,1.8,2470.432,13.31,0.065,237.5
2021-01-23T07:10:03,42.805,6.029,-0.038,-0.028,-0.004,107.0,106.0,103.0,13.4,1505.3,325.2,-0.7,1.8,2470.427,13.31,0.047,233.6
2021-01-23T07:13:03,42.805,6.029,-0.038,-0.018,0.005,107.0,107.0,104.0,13.4,1505.3,328.0,-0.7,1.8,2470.428,13.32,0.042,244.7
2021-01-23T07:16:03,42.805,6.029,-0.025,-0.034,0.002,107.0,108.0,103.0,13.3,1505.3,326.6,-0.7,1.8,2470.441,13.32,0.042,216.3
2021-01-23T07:19:03,42.805,6.029,-0.027,-0.055,-0.007,107.0,107.0,103.0,13.4,1505.3,323.8,-0.7,1.8,2470.445,13.32,0.061,206.1
2021-01-23T07:22:03,42.805,6.029,-0.051,-0.029,-0.031,107.0,106.0,103.0,13.4,1505.3,326.9,-0.7,1.8,2470.4,13.32,0.058,240.4
2021-01-23T07:25:03,42.805,6.029,-0.079,-0.024,-0.043,106.0,108.0,103.0,13.4,1505.3,326.6,-0.7,1.8,2470.445,13.32,0.082,253.1
2021-01-23T07:28:03,42.805,6.029,-0.068,-0.04,-0.047,107.0,108.0,104.0,13.4,1505.3,325.7,-0.7,1.8,2470.418,13.32,0.078,239.5
2021-01-23T07:31:03,42.805,6.029,-0.04,-0.072,-0.007,107.0,107.0,103.0,13.4,1505.3,324.1,-0.7,1.8,2470.414,13.32,0.082,209.1
2021-01-23T07:34:03,42.805,6.029,-0.045,-0.039,0.006,107.0,107.0,103.0,13.4,1505.3,326.9,-0.7,1.8,2470.416,13.32,0.059,229.1
2021-01-23T07:37:03,42.805,6.029,-0.036,-0.062,-0.021,107.0,108.0,103.0,13.4,1505.3,325.5,-0.7,1.9,2470.482,13.32,0.071,210.1
2021-01-23T07:40:03,42.805,6.029,-0.045,-0.028,-0.001,107.0,106.0,104.0,13.4,1505.3,324.2,-0.7,1.8,2470.417,13.32,0.053,238.1
2021-01-23T07:43:03,42.805,6.029,-0.013,-0.047,0.015,106.0,107.0,103.0,13.3,1505.3,324.1,-0.7,1.9,2470.436,13.32,0.048,195.5
2021-01-23T07:46:03,42.805,6.029,-0.046,-0.028,-0.029,107.0,107.0,102.0,13.4,1505.3,324.8,-0.7,1.9,2470.41,13.32,0.053,238.7
2021-01-23T07:49:03,42.805,6.029,-0.065,-0.045,-0.031,108.0,107.0,104.0,13.4,1505.3,325.9,-0.7,1.8,2470.418,13.32,0.079,235.3
2021-01-23T07:52:03,42.805,6.029,-0.041,-0.052,-0.021,108.0,107.0,104.0,13.3,1505.3,323.6,-0.7,1.8,2470.412,13.32,0.066,218.3
2021-01-23T07:55:03,42.805,6.029,-0.039,-0.029,-0.02,108.0,108.0,103.0,13.4,1505.3,323.4,-0.7,1.8,2470.415,13.32,0.048,233.4
2021-01-23T07:58:03,42.805,6.029,-0.043,-0.034,0.011,108.0,108.0,103.0,13.4,1505.3,323.5,-0.7,1.8,2470.382,13.32,0.054,231.7
2021-01-23T08:04:03,42.805,6.029,-0.055,-0.057,0.013,108.0,108.0,104.0,13.4,1505.2,323.8,-0.8,1.8,2470.459,13.3,0.079,224.0
2021-01-23T08:07:03,42.805,6.029,-0.059,-0.05,-0.007,109.0,108.0,104.0,13.3,1505.3,323.0,-0.7,1.8,2470.408,13.31,0.077,229.7
2021-01-23T08:10:03,42.805,6.029,-0.045,-0.053,-0.021,107.0,107.0,105.0,13.3,1505.3,325.1,-0.7,1.8,2470.446,13.31,0.069,220.3
2021-01-23T08:13:03,42.805,6.029,-0.043,-0.04,-0.012,108.0,108.0,103.0,13.4,1505.3,326.8,-0.7,1.8,2470.403,13.32,0.058,227.1
2021-01-23T08:16:03,42.805,6.029,-0.043,-0.065,0.026,110.0,109.0,104.0,13.3,1505.3,325.4,-0.7,1.8,2470.409,13.32,0.077,213.5
2021-01-23T08:19:03,42.805,6.029,-0.046,-0.032,0.0,108.0,108.0,104.0,13.4,1505.3,324.8,-0.7,1.8,2470.428,13.32,0.056,235.2
2021-01-23T08:22:03,42.805,6.029,-0.02,-0.04,0.001,109.0,109.0,106.0,13.3,1505.3,324.7,-0.7,1.8,2470.433,13.32,0.044,206.6
2021-01-23T08:25:03,42.805,6.029,-0.044,-0.036,0.011,109.0,108.0,105.0,13.4,1505.3,324.4,-0.7,1.9,2470.435,13.32,0.056,230.7
2021-01-23T08:28:03,42.805,6.029,-0.042,-0.041,-0.007,108.0,108.0,106.0,13.4,1505.3,327.1,-0.7,1.8,2470.412,13.32,0.058,225.7
2021-01-23T08:31:03,42.805,6.029,-0.045,-0.047,-0.007,109.0,108.0,105.0,13.4,1505.3,327.6,-0.7,1.8,2470.426,13.32,0.065,223.8
2021-01-23T08:34:03,42.805,6.029,-0.054,-0.047,0.008,110.0,110.0,105.0,13.4,1505.3,327.0,-0.7,1.8,2470.377,13.32,0.071,229.0
2021-01-23T08:37:03,42.805,6.029,-0.039,-0.025,0.006,109.0,109.0,106.0,13.3,1505.3,325.8,-0.7,1.8,2470.397,13.32,0.046,237.3
2021-01-23T08:40:03,42.805,6.029,-0.062,-0.025,-0.043,109.0,110.0,105.0,13.4,1505.3,326.4,-0.7,1.8,2470.426,13.32,0.066,248.0
2021-01-23T08:43:03,42.805,6.029,-0.055,-0.019,-0.035,111.0,109.0,106.0,13.4,1505.3,325.8,-0.7,1.8,2470.388,13.32,0.058,250.9
2021-01-23T08:46:03,42.805,6.029,-0.049,-0.041,-0.012,109.0,110.0,106.0,13.3,1505.3,324.4,-0.7,1.9,2470.38,13.32,0.063,230.1
2021-01-23T08:49:03,42.805,6.029,-0.036,-0.042,0.007,110.0,109.0,106.0,13.3,1505.3,324.3,-0.7,1.8,2470.407,13.32,0.055,220.6
2021-01-23T08:52:03,42.805,6.029,-0.039,-0.048,0.002,110.0,111.0,106.0,13.3,1505.3,326.8,-0.7,1.8,2470.407,13.32,0.061,219.1
2021-01-23T08:55:03,42.805,6.029,-0.041,-0.061,-0.004,110.0,111.0,106.0,13.4,1505.3,324.2,-0.7,1.8,2470.423,13.32,0.073,213.9
2021-01-23T08:58:03,42.805,6.029,-0.047,-0.045,-0.006,110.0,110.0,107.0,13.3,1505.3,325.8,-0.7,1.8,2470.385,13.32,0.065,226.2
2021-01-23T09:04:03,42.805,6.029,-0.062,-0.036,0.01,110.0,110.0,105.0,13.3,1505.2,324.1,-0.7,1.8,2470.407,13.3,0.071,239.9
2021-01-23T09:07:03,42.805,6.029,-0.053,-0.049,0.0,112.0,110.0,107.0,13.4,1505.3,324.9,-0.7,1.9,2470.409,13.31,0.072,227.2
2021-01-23T09:13:03,42.805,6.029,-0.057,-0.05,-0.011,111.0,110.0,106.0,13.4,1505.2,325.1,-0.7,1.8,2470.436,13.3,0.075,228.7
2021-01-23T09:16:03,42.805,6.029,-0.027,-0.046,0.015,110.0,109.0,106.0,13.3,1505.3,326.8,-0.8,1.8,2470.432,13.31,0.053,210.4
2021-01-23T09:19:03,42.805,6.029,-0.041,-0.03,-0.033,109.0,109.0,106.0,13.3,1505.3,324.7,-0.7,1.8,2470.416,13.31,0.05,233.8
2021-01-23T09:22:03,42.805,6.029,-0.038,-0.041,0.017,111.0,110.0,106.0,13.3,1505.3,323.8,-0.7,1.8,2470.439,13.32,0.055,222.8
2021-01-23T09:25:03,42.805,6.029,-0.059,-0.039,-0.013,110.0,109.0,105.0,13.4,1505.3,327.2,-0.7,1.8,2470.435,13.32,0.07,236.5
2021-01-23T09:28:03,42.805,6.029,-0.038,-0.031,0.004,110.0,110.0,107.0,13.3,1505.3,323.7,-0.7,1.9,2470.417,13.32,0.049,230.8
2021-01-23T09:31:03,42.805,6.029,-0.043,-0.055,0.018,109.0,110.0,106.0,13.4,1505.3,326.4,-0.7,1.8,2470.417,13.32,0.069,218.0
2021-01-23T09:34:03,42.805,6.029,-0.04,-0.043,-0.003,109.0,109.0,106.0,13.3,1505.3,324.6,-0.7,1.8,2470.403,13.32,0.058,222.9
2021-01-23T09:37:03,42.805,6.029,-0.024,-0.059,-0.005,110.0,111.0,106.0,13.4,1505.3,327.3,-0.7,1.8,2470.391,13.32,0.063,202.1
2021-01-23T09:40:03,42.805,6.029,-0.044,-0.052,0.015,110.0,109.0,105.0,13.4,1505.3,326.7,-0.7,1.9,2470.373,13.32,0.068,220.2
2021-01-23T09:43:03,42.805,6.029,-0.031,-0.027,0.003,109.0,110.0,105.0,13.4,1505.3,323.8,-0.7,1.8,2470.409,13.32,0.041,228.9
2021-01-23T09:46:03,42.805,6.029,-0.044,-0.034,0.005,109.0,110.0,105.0,13.4,1505.3,326.6,-0.7,1.8,2470.357,13.32,0.055,232.3
2021-01-23T09:49:03,42.805,6.029,-0.027,-0.035,-0.029,110.0,110.0,105.0,13.4,1505.3,324.8,-0.7,1.8,2470.419,13.32,0.044,217.7
2021-01-23T09:52:03,42.805,6.029,-0.028,-0.009,-0.003,111.0,110.0,106.0,13.3,1505.3,326.1,-0.7,1.8,2470.387,13.32,0.029,252.2
2021-01-23T09:55:03,42.805,6.029,-0.047,-0.049,-0.017,110.0,110.0,106.0,13.4,1505.3,327.9,-0.7,1.8,2470.414,13.32,0.067,223.8
2021-01-23T09:58:03,42.805,6.029,-0.042,-0.06,-0.008,110.0,110.0,106.0,13.4,1505.3,323.6,-0.7,1.8,2470.349,13.32,0.073,215.0